Вернуться в каталог

GSTAR 2

АктивенСвязьGEO
NORAD 16649·PAYLOAD·🇺🇸 United States

Запущен Mar 28, 1986 с Guiana Space Centre

Loading…

TLE

СвежийSource: Space-Track

Эпоха: Sep 12, 2026, 22:34 UTC

1 16649U 86026A   26255.94083941  .00000051  00000-0  00000-0 0  9992
2 16649  14.1542 345.1926 0001634  37.6268 333.9217  0.99797250117523

Отслеживайте GSTAR 2 в реальном времени с AllMySat

Download on the App Store